Location: Boca do Mato
(22.9085°S, 43.2930°W)
Time: 21:38:22
(UTC+00:00)

NOAA 6 - Pass Details

Date: 14 July 2020
Orbit: 771 x 788 km, 98.7° (Epoch: 10 August)

Event Time Altitude Azimuth Distance (km) Brightness Sun altitude
Rises 08:27:30 0° 359° (N) 3,227 7.5 -15.1°
Reaches altitude 10° 08:29:53 10° 353° (N) 2,308 6.6 -14.6°
Maximum altitude 08:34:44 45° 280° (W) 1,048 4.3 -13.5°
Drops below altitude 10° 08:39:39 10° 208° (SSW) 2,338 6.1 -12.5°
Enters shadow 08:41:01 - 204° (SSW) 2,861 6.6 -12.2°
